Regional Weather Roundup
Issued by NWS

Home | Current Version | Previous Version | Graphics & Text | Print | Product List | Glossary On
Versions: 1 2 3 4 5 6 7 8 9 10 11 12 13 14 15 16 17 18 19 20 21 22 23 24 25 26 27 28 29 30 31 32 33 34 35 36 37 38 39 40 41 42 43 44 45 46 47 48 49 50
000
ASUS45 KBOU 250807
RWRCO

WEATHER ROUNDUP FOR COLORADO
NATIONAL WEATHER SERVICE DENVER/BOULDER CO
100 AM MST TUE NOV 25 2014

NOTE: "FAIR" INDICATES FEW OR NO CLOUDS BELOW 12000 FEET WITH NO
SIGNIFICANT WEATHER AND/OR OBSTRUCTIONS TO VISIBILITY.

COZ001>005-013-030-031-250900-
...NORTHWEST COLORADO...

CITY           SKY/WX    TMP DP  RH WIND       PRES   REMARKS
CRAIG          CLOUDY    11   6  81 E6        30.32F WCI   1
HAYDEN         CLOUDY    16   9  73 E6        30.30F WCI   7
MEEKER         CLOUDY     7   3  84 NE6       30.35F WCI  -3
MOUNT WERNER   NOT AVBL
STEAMBOAT SPGS CLOUDY    11   8  89 CALM      30.31F
WALDEN         CLEAR     10   3  72 SW7       30.19F WCI   0
$$

COZ006>008-011-250900-
...WEST CENTRAL VALLEYS...

CITY           SKY/WX    TMP DP  RH WIND       PRES   REMARKS
GRAND JUNCTION CLEAR     22  16  78 SE10      30.40F WCI  11
MONTROSE       CLEAR     17  12  80 SE8       30.43R WCI   7
EAGLE          CLEAR      7   5  92 CALM      30.39R
RIFLE          PTCLDY    12   8  84 SE6       30.42R WCI   3
DELTA          CLEAR     20  15  81 CALM      30.43S
NUCLA          CLEAR     21  12  68 E10       30.44S WCI  10
$$

COZ017>023-064>068-250900-
...SOUTHWEST COLORADO...

CITY           SKY/WX    TMP DP  RH WIND       PRES   REMARKS
DURANGO        CLEAR     19   8  62 SW3       30.33F
CORTEZ         CLEAR     15  11  83 NE9       30.40F WCI   3
PAGOSA SPRINGS CLEAR     15   3  58 CALM      30.32S
TELLURIDE      NOT AVBL
WOLF CREEK PAS PTCLDY     5 -15  39 MISG      30.22R
$$

COZ009-010-012-014-032>034-037-058>063-250900-
...CENTRAL COLORADO...

CITY           SKY/WX    TMP DP  RH WIND       PRES   REMARKS
ASPEN          MOCLDY    13   8  81 S8        30.31S WCI   2
BUENA VISTA    PTCLDY    17   4  58 W8G18     30.24S WCI   6
COPPER MTN     CLOUDY     7   0  72 W22G29    30.13F WCI -14
BERTHOUD PASS  CLOUDY    -2  -6  84 MISG      30.04F
COTTONWOOD PAS PTCLDY    18   0  45 W15G32    30.17S WCI   3
GUNNISON       PTCLDY     0  -8  71 CALM      30.36S
KREMMLING      CLOUDY    19  10  68 W8        30.29S WCI   9
LEADVILLE      LGT SNOW   6   2  83 NE9       30.20S FOG     WCI  -8
MONARCH PASS   CLOUDY     1  -4  78 MISG      30.24S
SALIDA         PTCLDY    16   6  63 CALM      30.33F
SUNLIGHT       CLOUDY   N/A N/A N/A CALM      30.25R
WILKERSON PASS NOT AVBL
$$

COZ069>075-250900-
...SAN LUIS VALLEY/SANGRE DE CRISTO MOUNTAINS...

CITY           SKY/WX    TMP DP  RH WIND       PRES   REMARKS
ALAMOSA        PTCLDY     3  -3  76 SW7       30.30R WCI  -9
LA VETA PASS   CLEAR      7   3  85 MISG      30.14F
SAGUACHE       NOT AVBL
$$

COZ035-036-038>040-250900-
...NORTHERN COLORADO FRONT RANGE...

CITY           SKY/WX    TMP DP  RH WIND       PRES   REMARKS
DENVER INTL AP PTCLDY    25  11  55 S16       30.15F WCI  12
DMNS CITY PARK   N/A     26   8  45 SW7G14    30.17S WCI  19
AURORA         PTCLDY    22  11  62 S12       30.16F WCI  10
FRONT RANGE AP CLEAR     23  16  74 S15       30.16F WCI  10
ERIE MUNI ARPT CLEAR     22  12  63 S3        30.14F
BOULDER MUN AP CLEAR     28   9  43 S3        30.14S
CENTENNIAL     PTCLDY    24   8  50 SW12      30.16F WCI  13
BROOMFIELD     CLEAR     32   9  37 W23G31    30.14F WCI  19
FORT COLLINS   CLEAR     21  12  68 SE7       30.16F WCI  13
LONGMONT       CLEAR     22  12  66 CALM      30.17S
$$

COZ041-046-047-076>085-087-088-250900-
...PIKES PEAK/PALMER DIVIDE AND SOUTHERN FOOTHILLS...

CITY           SKY/WX    TMP DP  RH WIND       PRES   REMARKS
COLO. SPRINGS  CLEAR     17   8  67 N6        30.19F WCI   9
A. F. ACADEMY  CLEAR     20   4  50 N6        30.17F WCI  12
ELLICOTT       NOT AVBL
FALCON         NOT AVBL
FORT CARSON    CLEAR     16   9  76 N7        30.18F WCI   6
LIMON          CLEAR     16  10  77 W5        30.19F WCI   9
MONUMENT HILL  CLEAR     18   5  57 SW9       30.14F WCI   6
TRINIDAD       CLEAR     21  16  81 SW14      30.25F WCI   8
$$

COZ042>045-048>051-090-091-250900-
...NORTHEAST COLORADO...

CITY           SKY/WX    TMP DP  RH WIND       PRES   REMARKS
GREELEY ARPT   CLEAR     16   7  67 CALM      30.17F
AKRON          CLEAR     21  16  81 SW12      30.16S WCI   9
BURLINGTON     CLEAR     20  14  77 W8        30.19S WCI  10
WRAY           CLEAR     20  17  86 W7        30.17F WCI  12
STERLING       CLEAR     25  19  80 W8        30.16S WCI  16
HOLYOKE        CLEAR     25  19  80 W10       30.16S WCI  15
FORT MORGAN    CLEAR     17  14  87 W6        30.18S WCI   9
$$

COZ086-089-092>099-250900-
...SOUTHEAST COLORADO...

CITY           SKY/WX    TMP DP  RH WIND       PRES   REMARKS
PUEBLO         CLEAR     21  17  84 W6        30.23F WCI  13
LA JUNTA       CLEAR     27  19  72 W14       30.25F WCI  16
LAMAR          CLEAR     21  17  84 SW7       30.24S WCI  12
SPRINGFIELD      N/A     22  17  81 W12       30.24F WCI  10
$$



USA.gov is the U.S. government's official web portal to all federal, state and local government web resources and services.